Waseca, MN

1:45 AM CST on February 28, 2017 (GMT -0600)
Waseca Municipal

Weather History for KACQ - October, 2012

Change the Weather History Date:

Tuesday, October 9, 2012

  Actual Average Record
Temperature  
Mean Temperature 43 °F -  
Max Temperature 51 °F 59 °F 90 °F (1938)
Min Temperature 33 °F 37 °F 19 °F (1917)
Degree Days  
Heating Degree Days 22    
Moisture  
Dew Point 35 °F    
Average Humidity 65    
Maximum Humidity 87    
Minimum Humidity 43    
Precipitation  
Precipitation 0.06 in - - ()
Sea Level Pressure  
Sea Level Pressure 29.86 in    
Wind  
Wind Speed 11 mph (West)    
Max Wind Speed 25 mph    
Max Gust Speed 36 mph    
Visibility 10 miles    
Events Rain    
Averages and records for this station are not official NWS values.
T = Trace of Precipitation, MM = Missing Value Source: NWS Daily Summary

Daily Weather History Graph

Daily Weather History Graph

Search for Another Location

Airport or City:

Trip Planner

Search our weather history database for the weather conditions in past years. The results will help you decide how hot, cold, wet, or windy it might be!

Date:

Astronomy

Oct. 09, 2012 Rise Set
Actual Time 7:22 AM CDT 6:39 PM CDT
Civil Twilight 6:53 AM CDT 7:08 PM CDT
Nautical Twilight 6:19 AM CDT 7:42 PM CDT
Astronomical Twilight 5:46 AM CDT 8:15 PM CDT
Moon 12:47 AM CDT (10/9) 3:18 PM CDT (10/9)
Length of Visible Light 12h 15m
Length of Day
11h 17m
Last Quarter, 36% of the Moon is Illuminated
Oct 9
Last Quarter
Oct 15
New
Oct 21
First Quarter
Oct 29
Full
Nov 6
Last Quarter

Hourly Weather History & Observations

Time (CDT) Temp. Windchill Dew Point Humidity Pressure Visibility Wind Dir Wind Speed Gust Speed Precip Events Conditions
12:12 AM 51.8 °F - 44.6 °F 76% 29.79 in 10.0 mi South 5.8 mph - N/A   Overcast
12:33 AM 51.8 °F - 44.6 °F 76% 29.79 in 10.0 mi South 5.8 mph - N/A   Overcast
12:52 AM 50.0 °F - 41.0 °F 71% 29.78 in 10.0 mi South 4.6 mph - N/A   Mostly Cloudy
1:13 AM 46.4 °F 43.5 °F 39.2 °F 76% 29.78 in 10.0 mi South 5.8 mph - N/A   Scattered Clouds
1:52 AM 44.6 °F 40.7 °F 39.2 °F 81% 29.78 in 10.0 mi South 6.9 mph - N/A   Clear
2:13 AM 44.6 °F 41.4 °F 39.2 °F 81% 29.78 in 10.0 mi South 5.8 mph - N/A   Clear
2:52 AM 46.4 °F 43.5 °F 41.0 °F 81% 29.78 in 10.0 mi SSW 5.8 mph - N/A   Overcast
3:12 AM 48.2 °F - 42.8 °F 82% 29.78 in 10.0 mi SSW 5.8 mph - N/A   Overcast
3:33 AM 50.0 °F - 44.6 °F 82% 29.77 in 10.0 mi SSW 8.1 mph - N/A   Light Drizzle
3:52 AM 51.8 °F - 46.4 °F 82% 29.77 in 10.0 mi SSW 10.4 mph - N/A Rain Rain
4:12 AM 51.8 °F - 46.4 °F 82% 29.78 in 7.0 mi SSW 8.1 mph - 0.01 in   Drizzle
4:33 AM 51.8 °F - 46.4 °F 82% 29.78 in 7.0 mi SSW 9.2 mph - 0.01 in   Drizzle
4:52 AM 51.8 °F - 46.4 °F 82% 29.77 in 7.0 mi SSW 9.2 mph - 0.02 in Rain Light Rain
5:13 AM 51.8 °F - 46.4 °F 82% 29.77 in 7.0 mi South 8.1 mph - N/A   Light Drizzle
5:33 AM 50.0 °F - 44.6 °F 82% 29.77 in 10.0 mi South 8.1 mph - N/A   Overcast
5:53 AM 50.0 °F - 44.6 °F 82% 29.78 in 7.0 mi SSW 6.9 mph - 0.01 in Rain Light Rain
6:13 AM 50.0 °F - 44.6 °F 82% 29.78 in 7.0 mi SSW 9.2 mph - 0.01 in Rain Light Rain
6:33 AM 50.0 °F - 44.6 °F 82% 29.78 in 10.0 mi SSW 8.1 mph - 0.01 in   Overcast
6:52 AM 50.0 °F - 44.6 °F 82% 29.78 in 10.0 mi SSW 9.2 mph - 0.01 in   Overcast
7:13 AM 48.2 °F - 44.6 °F 87% 29.78 in 10.0 mi SSW 4.6 mph - N/A   Mostly Cloudy
7:32 AM 48.2 °F - 44.6 °F 87% 29.79 in 7.0 mi WSW 6.9 mph - N/A   Mostly Cloudy
7:53 AM 50.0 °F - 44.6 °F 82% 29.79 in 10.0 mi West 10.4 mph - N/A   Scattered Clouds
8:13 AM 50.0 °F - 44.6 °F 82% 29.80 in 10.0 mi WNW 11.5 mph - N/A   Scattered Clouds
8:33 AM 46.4 °F 39.5 °F 41.0 °F 81% 29.81 in 10.0 mi NW 17.3 mph 20.7 mph N/A   Scattered Clouds
8:53 AM 46.4 °F 39.0 °F 37.4 °F 71% 29.82 in 10.0 mi NW 19.6 mph 24.2 mph N/A   Scattered Clouds
9:12 AM 44.6 °F 36.6 °F 35.6 °F 71% 29.83 in 10.0 mi NW 19.6 mph 29.9 mph N/A   Mostly Cloudy
9:33 AM 44.6 °F 37.8 °F 37.4 °F 76% 29.83 in 7.0 mi NW 15.0 mph - 0.01 in Rain Rain
9:53 AM 44.6 °F 38.8 °F 37.4 °F 76% 29.84 in 7.0 mi WNW 11.5 mph - 0.01 in   Drizzle
10:13 AM 44.6 °F 39.2 °F 37.4 °F 76% 29.85 in 10.0 mi WNW 10.4 mph 13.8 mph N/A Rain Light Rain
10:33 AM 44.6 °F 40.7 °F 37.4 °F 76% 29.85 in 10.0 mi West 6.9 mph - N/A   Light Drizzle
10:53 AM 44.6 °F 40.7 °F 37.4 °F 76% 29.85 in 10.0 mi West 6.9 mph - N/A   Light Drizzle
11:13 AM 44.6 °F 39.2 °F 37.4 °F 76% 29.85 in 10.0 mi West 10.4 mph - N/A   Mostly Cloudy
11:32 AM 46.4 °F 40.4 °F 37.4 °F 71% 29.85 in 10.0 mi West 13.8 mph - N/A   Mostly Cloudy
11:53 AM 46.4 °F 40.7 °F 37.4 °F 71% 29.84 in 10.0 mi WSW 12.7 mph - N/A   Scattered Clouds
12:13 PM 46.4 °F 39.8 °F 37.4 °F 71% 29.84 in 10.0 mi West 16.1 mph 23.0 mph 0.01 in   Scattered Clouds
12:33 PM 46.4 °F 39.0 °F 35.6 °F 66% 29.85 in 10.0 mi West 19.6 mph 26.5 mph 0.01 in   Mostly Cloudy
12:53 PM 50.0 °F - 35.6 °F 58% 29.84 in 10.0 mi West 19.6 mph 25.3 mph 0.01 in   Scattered Clouds
1:13 PM 50.0 °F - 33.8 °F 54% 29.84 in 10.0 mi West 21.9 mph 28.8 mph N/A   Clear
1:32 PM 51.8 °F - 33.8 °F 50% 29.84 in 10.0 mi WSW 21.9 mph 28.8 mph N/A   Mostly Cloudy
1:53 PM 50.0 °F - 30.2 °F 47% 29.84 in 10.0 mi WNW 20.7 mph 27.6 mph N/A   Overcast
2:13 PM 50.0 °F - 30.2 °F 47% 29.84 in 10.0 mi West 20.7 mph 29.9 mph N/A   Overcast
2:32 PM 50.0 °F - 28.4 °F 43% 29.85 in 10.0 mi West 24.2 mph 31.1 mph N/A   Overcast
2:53 PM 48.2 °F - 26.6 °F 43% 29.85 in 10.0 mi WNW 17.3 mph 31.1 mph N/A   Overcast
3:13 PM 48.2 °F - 26.6 °F 43% 29.86 in 10.0 mi WNW 25.3 mph 29.9 mph N/A   Overcast
3:32 PM 46.4 °F 38.3 °F 26.6 °F 46% 29.87 in 10.0 mi West 23.0 mph 27.6 mph N/A   Overcast
3:53 PM 46.4 °F 39.5 °F 28.4 °F 50% 29.87 in 10.0 mi West 17.3 mph - N/A   Overcast
4:13 PM 48.2 °F - 26.6 °F 43% 29.87 in 10.0 mi West 17.3 mph 25.3 mph N/A   Mostly Cloudy
4:32 PM 46.4 °F 39.8 °F 26.6 °F 46% 29.88 in 10.0 mi West 16.1 mph - N/A   Overcast
4:53 PM 50.0 °F - 28.4 °F 43% 29.88 in 10.0 mi West 21.9 mph 29.9 mph N/A   Overcast
5:13 PM 46.4 °F 38.7 °F 30.2 °F 53% 29.89 in 10.0 mi WNW 20.7 mph 26.5 mph N/A   Overcast
5:32 PM 46.4 °F 38.1 °F 28.4 °F 50% 29.90 in 10.0 mi WNW 24.2 mph 31.1 mph N/A   Overcast
5:53 PM 46.4 °F 38.3 °F 28.4 °F 50% 29.91 in 10.0 mi WNW 23.0 mph 29.9 mph N/A   Overcast
6:13 PM 44.6 °F 36.4 °F 28.4 °F 53% 29.92 in 10.0 mi WNW 20.7 mph 26.5 mph N/A   Overcast
6:33 PM 44.6 °F 35.7 °F 28.4 °F 53% 29.93 in 10.0 mi NW 24.2 mph 33.4 mph N/A   Overcast
6:53 PM 44.6 °F 35.7 °F 28.4 °F 53% 29.95 in 10.0 mi NW 24.2 mph 29.9 mph N/A   Overcast
7:13 PM 44.6 °F 37.4 °F 28.4 °F 53% 29.96 in 10.0 mi WNW 16.1 mph 27.6 mph N/A   Overcast
7:33 PM 44.6 °F 35.7 °F 28.4 °F 53% 29.97 in 10.0 mi WNW 24.2 mph 35.7 mph N/A   Overcast
7:53 PM 44.6 °F 37.4 °F 26.6 °F 49% 29.98 in 10.0 mi WNW 16.1 mph 27.6 mph N/A   Overcast
8:13 PM 44.6 °F 37.2 °F 28.4 °F 53% 29.98 in 10.0 mi WNW 17.3 mph 23.0 mph N/A   Overcast
8:33 PM 44.6 °F 37.8 °F 28.4 °F 53% 29.98 in 10.0 mi WNW 15.0 mph 20.7 mph N/A   Overcast
8:53 PM 44.6 °F 35.7 °F 28.4 °F 53% 29.99 in 10.0 mi NW 24.2 mph 28.8 mph N/A   Overcast
9:13 PM 42.8 °F 33.5 °F 23.0 °F 46% 30.00 in 10.0 mi WNW 23.0 mph 31.1 mph N/A   Overcast
9:33 PM 41.0 °F 32.5 °F 23.0 °F 49% 30.00 in 10.0 mi WNW 17.3 mph 21.9 mph N/A   Overcast
9:53 PM 41.0 °F 32.8 °F 23.0 °F 49% 30.01 in 10.0 mi WNW 16.1 mph 21.9 mph N/A   Overcast
10:12 PM 39.2 °F 32.0 °F 23.0 °F 52% 30.01 in 10.0 mi WNW 11.5 mph - N/A   Scattered Clouds
10:33 PM 39.2 °F 32.0 °F 23.0 °F 52% 30.01 in 10.0 mi WNW 11.5 mph - N/A   Clear
10:52 PM 39.2 °F 32.5 °F 24.8 °F 56% 30.02 in 10.0 mi WNW 10.4 mph - N/A   Clear
11:13 PM 35.6 °F 28.6 °F 23.0 °F 60% 30.03 in 10.0 mi WNW 9.2 mph - N/A   Clear
11:32 PM 35.6 °F 28.0 °F 23.0 °F 60% 30.03 in 10.0 mi West 10.4 mph - N/A   Clear
11:53 PM 33.8 °F 27.0 °F 23.0 °F 65% 30.03 in 10.0 mi West 8.1 mph - N/A   Clear